{"data":{"norad_id":51876,"epoch":"2026-05-25T01:09:15.162624Z","epoch_age_seconds":68079,"freshness":"FRESH","line1":"1 51876U 22022AA  26145.04809216 -.00001067  00000+0 -48924-4 0  9999","line2":"2 51876  53.2138  26.3306 0001606  85.1572 274.9603 15.08840442234648","mean_motion":15.08840442,"eccentricity":0.0001606,"inclination_deg":53.2138,"raan_deg":26.3306,"arg_perigee_deg":85.1572,"mean_anomaly_deg":274.9603,"bstar":-4.8924e-5,"rev_number":23464,"period_min":95.437526720271,"perigee_km":538.63102657376,"apogee_km":540.85304932075,"semimajor_km":6917.8790379473,"source":"CELESTRAK","updated_at":"2026-05-25T13:38:16.984254Z"}}